Location: Leuk
(46.3174°N, 7.6341°E)
Time: 21:07:14
(UTC+00:00)

COSMOS 2428 - Pass Details

Date: 09 March 2021
Orbit: 845 x 858 km, 70.9° (Epoch: 20 April)

Event Time Altitude Azimuth Distance (km) Brightness Sun altitude
Rises 03:08:15 0° 337° (NNW) 3,429 5.9 -28.6°
Reaches altitude 10° 03:10:51 10° 344° (NNW) 2,492 5.2 -28.2°
Maximum altitude 03:16:17 43° 55° (NE) 1,190 3.8 -27.4°
Drops below altitude 10° 03:21:42 10° 127° (SE) 2,486 5.5 -26.5°
Sets 03:24:17 0° 134° (SE) 3,419 6.2 -26.1°
